Retour au catalogue

SL-14 DEB

ActifPO
NORAD 26003·DEBRIS·🇷🇺 Russia

Lancé Sep 28, 1991 depuis Plesetsk Cosmodrome

Loading…

Prochains Passages (prochaines 24 heures)

TLE

FraisSource: Space-Track

Époque: Sep 14, 2026, 01:00 UTC

1 26003U 91068N   26257.04217990  .00001296  00000-0  64097-2 0  9995
2 26003  82.7195 104.1317 0061233 142.1139  11.4853 12.70210709235885

Suivez SL-14 DEB en temps réel avec AllMySat

Download on the App Store